Regional Weather Roundup
Issued by NWS

Home | Current Version | Previous Version | Graphics & Text | Print | Product List | Glossary On
Versions: 1 2 3 4 5 6 7 8 9 10 11 12 13 14 15 16 17 18 19 20 21 22 23 24 25 26 27 28 29 30 31 32 33 34 35 36 37 38 39 40 41 42 43 44 45 46 47 48 49 50
959
ASUS43 KFSD 261902
RWRSD

WEATHER ROUNDUP FOR SOUTH DAKOTA
NATIONAL WEATHER SERVICE SIOUX FALLS SD
200 PM CDT MON JUN 26 2017

NOTE: "FAIR" INDICATES FEW OR NO CLOUDS BELOW 12,000 FEET WITH NO
SIGNIFICANT WEATHER AND/OR OBSTRUCTIONS TO VISIBILITY.


SDZ001>005-009-010-012>017-262000-
NORTHWEST AND NORTH CENTRAL SOUTH DAKOTA

CITY           SKY/WX    TMP DP  RH WIND       PRES   REMARKS
BUFFALO          N/A     79  38  22 S12G21    30.09F
FAITH            N/A     73  41  31 S12       30.19F
MOBRIDGE       SUNNY     72  39  30 S12G17    30.18F
$$

SDZ012>016-024>037-041>051-057-063-072>074-262000-
SOUTHWEST AND SOUTH CENTRAL SOUTH DAKOTA

CITY           SKY/WX    TMP DP  RH WIND       PRES   REMARKS
RAPID CTY ARPT SUNNY     76  38  25 SE13G22   30.18F
PIERRE         SUNNY     71  41  33 MISG      30.19F
CUSTER         SUNNY     69  35  28 S8        30.26F
ELLSWORTH AFB  SUNNY     76  38  24 SE17      30.17
PHILIP         SUNNY     76  41  28 E10G18    30.19F
PINE RIDGE     SUNNY     76  40  27 VRB3      30.20F
SPEARFISH      FAIR      75  43  31 E12G18    30.18F
WINNER         FAIR      77  41  27 NE13G18   30.20F
$$

SDZ004>011-016>023-039-040-262000-
NORTHEAST SOUTH DAKOTA

CITY           SKY/WX    TMP DP  RH WIND       PRES   REMARKS
ABERDEEN       SUNNY     70  37  29 NE8       30.22F
WATERTOWN      SUNNY     66  41  40 NW9       30.21F
BROOKINGS      MOSUNNY   65  39  38 N10G17    30.21F
SISSETON         N/A     71  40  32 VRB6      30.20F
$$

SDZ017-020-022-023-036>040-048>070-262000-
SOUTHEAST SOUTH DAKOTA

CITY           SKY/WX    TMP DP  RH WIND       PRES   REMARKS
SIOUX FALLS    MOSUNNY   69  45  41 N13G18    30.21F
HURON          SUNNY     70  41  34 VRB6      30.22F
CHAMBERLAIN    SUNNY     74  41  30 NE10G18   30.20F
MITCHELL       SUNNY     71  38  29 N13G18    30.22F
YANKTON        MOSUNNY   70  46  42 N8        30.20F
$$

ABBREVIATIONS USED IN REMARKS
   TC - TEMPERATURE IN CELSIUS
  WCI - WIND CHILL INDEX
   HX - HEAT INDEX
  VSB - VISIBILITY





USA.gov is the U.S. government's official web portal to all federal, state and local government web resources and services.